Location: Lafig�re
(44.4503°N, 4.0357°E)
Time: 15:00:50
(UTC+00:00)

Transit 2A Rocket - Pass Details

Date: 29 January 2021
Orbit: 594 x 908 km, 66.7° (Epoch: 06 March)

Event Time Altitude Azimuth Distance (km) Brightness Sun altitude
Rises 10:46:11 0° 212° (SSW) 3,337 8.9 25.7°
Reaches altitude 10° 10:48:42 10° 213° (SSW) 2,362 8.2 25.8°
Maximum altitude 10:54:07 85° 301° (WNW) 753 5.4 26.1°
Drops below altitude 10° 10:59:04 10° 31° (NNE) 2,164 7.0 26.4°
Sets 11:01:18 0° 32° (NNE) 3,038 7.7 26.5°
